EW1134 Oinofyta GR current weather conditions

sailwx.info

Wind from 280 at 0 knots gusting 3

Air temperature 26.7° C
Dewpoint 13.0° C

Last reported at 2020-Aug-12 06:05 UTC.
Time now 2020-Aug-12 06:43 UTC

Location: N 38°19' E 023°39'.
View on Google Maps.

See reports from other nearby stations

  
Tides and Currents Weather Stations Pressure Air Temp Water Temp Dewpoint Dewpoint Depression Visibility Wind Speed Wind Dir Waves Ship Positions
date/time (UTC)wind fromknots sea level pressurealtimeterstation pressurevisibilityair tempwater tempwave heightnotes
2020-Aug-12 06:05 280 0 gusting 3 26.7
2020-Aug-12 06:00 279 0 gusting 3 26.1
2020-Aug-12 05:55 250 1 gusting 4 26.1
2020-Aug-12 05:50 253 0 gusting 4 25.6
2020-Aug-12 05:45 262 0 gusting 4 25.6
2020-Aug-12 05:40 254 1 gusting 4 25.0
2020-Aug-12 05:35 253 1 gusting 4 25.0
2020-Aug-12 05:30 239 1 gusting 3 24.4
2020-Aug-12 05:25 235 1 gusting 3 24.4
2020-Aug-12 05:20 229 0 gusting 2 23.9
2020-Aug-12 05:15 253 23.9
2020-Aug-12 05:10 281 0 gusting 4 23.3
2020-Aug-12 05:05 274 0 gusting 3 22.8
2020-Aug-12 05:00 259 22.8
2020-Aug-12 04:55 239 22.2
2020-Aug-12 04:50 197 22.2
2020-Aug-12 04:45 189 22.2
2020-Aug-12 04:40 219 21.7
2020-Aug-12 04:35 232 0 gusting 3 21.7
2020-Aug-12 04:30 247 0 gusting 3 21.1
2020-Aug-12 04:25 271 0 gusting 3 21.1
2020-Aug-12 04:20 269 21.1
2020-Aug-12 04:15 249 20.6
2020-Aug-12 04:10 248 20.6
2020-Aug-12 04:05 255 0 gusting 2 20.6
2020-Aug-12 04:00 249 20.6
2020-Aug-12 03:55 225 20.6
2020-Aug-12 03:50 225 20.0
2020-Aug-12 03:45 225 0 gusting 2 20.0
2020-Aug-12 03:40 215 0 gusting 3 20.0
2020-Aug-12 03:35 214 1 gusting 4 20.0
2020-Aug-12 03:30 218 1 gusting 4 20.0
2020-Aug-12 03:25 221 1 gusting 4 20.0
2020-Aug-12 03:20 213 1 gusting 4 20.0
2020-Aug-12 03:15 208 1 gusting 4 20.6
2020-Aug-12 03:10 227 0 gusting 4 20.6
2020-Aug-12 03:05 258 0 gusting 4 20.6
2020-Aug-12 03:00 277 0 gusting 3 20.6
2020-Aug-12 02:55 326 0 gusting 3 20.6
2020-Aug-12 02:50 296 0 gusting 3 20.6
2020-Aug-12 02:45 306 20.0
2020-Aug-12 02:40 004 0 gusting 4 20.0
2020-Aug-12 02:35 306 0 gusting 4 20.0
2020-Aug-12 02:30 229 20.0
2020-Aug-12 02:25 205 0 gusting 3 20.0
2020-Aug-12 02:20 196 0 gusting 3 20.0
2020-Aug-12 02:15 217 0 gusting 4 20.0
2020-Aug-12 02:10 219 1 gusting 4 20.6
2020-Aug-12 02:05 219 1 gusting 4 21.1
2020-Aug-12 02:00 226 0 gusting 3 21.1
2020-Aug-12 01:55 228 0 gusting 3 21.1
2020-Aug-12 01:50 222 0 gusting 3 21.1
2020-Aug-12 01:45 241 0 gusting 4 21.1
2020-Aug-12 01:40 238 0 gusting 4 21.7
2020-Aug-12 01:35 246 1 gusting 4 21.7
2020-Aug-12 01:30 269 0 gusting 4 21.7
2020-Aug-12 01:25 241 21.7
2020-Aug-12 01:20 227 0 gusting 3 22.2
2020-Aug-12 01:15 242 22.2
2020-Aug-12 01:10 273 0 gusting 3 21.7
2020-Aug-12 01:05 295 0 gusting 3 21.7
2020-Aug-12 01:00 311 21.7
2020-Aug-12 00:50 303 21.1
2020-Aug-12 00:45 128 21.1
2020-Aug-12 00:40 090 21.1
2020-Aug-12 00:35 082 21.1
2020-Aug-12 00:30 031 21.7
2020-Aug-12 00:25 303 21.7
2020-Aug-12 00:20 298 21.7
2020-Aug-12 00:15 294 21.7
2020-Aug-12 00:10 001 21.7
2020-Aug-12 00:05 001 21.7
2020-Aug-12 00:00 135 22.2
2020-Aug-11 23:55 233 22.2
2020-Aug-11 23:50 250 0 gusting 3 22.2
2020-Aug-11 23:45 258 0 gusting 4 22.8
2020-Aug-11 23:40 262 0 gusting 4 22.2
2020-Aug-11 23:35 282 0 gusting 3 22.2
2020-Aug-11 23:25 244 22.2
2020-Aug-11 23:20 258 22.2
2020-Aug-11 23:15 268 0 gusting 2 22.2
2020-Aug-11 23:10 263 0 gusting 4 22.2
2020-Aug-11 23:05 257 0 gusting 4 22.2
2020-Aug-11 23:00 248 1 gusting 4 22.2
2020-Aug-11 22:55 221 2 gusting 5 22.2
2020-Aug-11 22:50 221 1 gusting 5 22.8
2020-Aug-11 22:45 248 1 gusting 5 22.8
2020-Aug-11 22:40 271 0 gusting 4 22.8
2020-Aug-11 22:35 264 1 gusting 4 22.8
2020-Aug-11 22:30 266 1 gusting 4 22.8
2020-Aug-11 22:25 274 1 gusting 4 22.8
2020-Aug-11 22:20 273 0 gusting 4 22.8
2020-Aug-11 22:15 295 22.8
2020-Aug-11 22:10 293 22.8
2020-Aug-11 22:05 253 0 gusting 5 23.3
2020-Aug-11 22:00 240 1 gusting 5 23.3
2020-Aug-11 21:55 266 1 gusting 5 23.3
2020-Aug-11 21:50 270 1 gusting 6 23.3
2020-Aug-11 21:45 261 0 gusting 6 23.3
2020-Aug-11 21:40 272 0 gusting 4 23.3
2020-Aug-11 21:35 256 0 gusting 4 23.3
2020-Aug-11 21:30 262 0 gusting 4 23.3
2020-Aug-11 21:25 270 0 gusting 4 23.3
2020-Aug-11 21:20 266 0 gusting 3 23.3
2020-Aug-11 21:15 254 1 gusting 4 23.3
2020-Aug-11 21:10 256 1 gusting 4 23.3
2020-Aug-11 21:05 272 1 gusting 4 23.3
2020-Aug-11 21:00 266 0 gusting 3 23.3
2020-Aug-11 20:55 241 1 gusting 4 23.9
2020-Aug-11 20:50 240 1 gusting 4 23.9
2020-Aug-11 20:45 264 1 gusting 4 23.9
2020-Aug-11 20:40 272 1 gusting 4 23.9
2020-Aug-11 20:35 255 0 gusting 3 23.9
2020-Aug-11 20:30 264 23.9
2020-Aug-11 20:25 263 0 gusting 4 23.9
2020-Aug-11 20:20 249 0 gusting 4 23.9
2020-Aug-11 20:15 242 1 gusting 4 23.9
2020-Aug-11 20:10 226 1 gusting 5 23.9
2020-Aug-11 20:05 226 2 gusting 6 24.4
2020-Aug-11 20:00 236 2 gusting 6 24.4
2020-Aug-11 19:55 236 2 gusting 4 24.4
2020-Aug-11 19:50 227 2 gusting 4 25.0
2020-Aug-11 19:45 221 1 gusting 4 25.0
2020-Aug-11 19:40 159 0 gusting 3 25.0
2020-Aug-11 19:35 193 0 gusting 4 25.6
2020-Aug-11 19:30 229 1 gusting 4 25.6
2020-Aug-11 19:25 234 1 gusting 4 25.6
2020-Aug-11 19:20 241 1 gusting 4 26.1
2020-Aug-11 19:15 237 1 gusting 4 26.1
2020-Aug-11 19:10 224 0 gusting 4 26.1
2020-Aug-11 19:05 183 26.1
2020-Aug-11 19:00 208 0 gusting 3 26.7
2020-Aug-11 18:55 218 1 gusting 3 26.7
2020-Aug-11 18:50 220 0 gusting 3 26.7
2020-Aug-11 18:45 267 0 gusting 3 27.2
2020-Aug-11 18:40 326 0 gusting 3 27.2
2020-Aug-11 18:35 339 1 gusting 4 27.8
2020-Aug-11 18:30 333 2 gusting 5 27.8
2020-Aug-11 18:25 326 3 gusting 5 27.8
2020-Aug-11 18:20 325 3 gusting 6 27.8
2020-Aug-11 18:15 340 3 gusting 6 27.8
2020-Aug-11 18:10 352 3 gusting 6 27.8
2020-Aug-11 18:05 353 3 gusting 6 27.8
2020-Aug-11 18:00 349 2 gusting 6 27.8
2020-Aug-11 17:55 346 2 gusting 6 28.3
2020-Aug-11 17:50 340 3 gusting 6 28.3
2020-Aug-11 17:45 325 3 gusting 6 28.3
2020-Aug-11 17:40 321 3 gusting 6 28.3
2020-Aug-11 17:30 324 1 gusting 4 28.3
2020-Aug-11 17:25 352 1 gusting 4 28.9
2020-Aug-11 17:20 001 1 gusting 6 28.9
2020-Aug-11 17:15 006 1 gusting 6 28.9
2020-Aug-11 17:10 021 1 gusting 6 29.4
2020-Aug-11 17:05 017 2 gusting 6 29.4
2020-Aug-11 17:00 009 2 gusting 7 30.0
2020-Aug-11 16:55 028 3 gusting 7 30.0
2020-Aug-11 16:50 056 3 gusting 7 30.0
2020-Aug-11 16:45 065 3 gusting 7 30.0
2020-Aug-11 16:35 020 3 gusting 10 30.6
2020-Aug-11 16:25 002 4 gusting 10 30.6
2020-Aug-11 16:20 012 3 gusting 8 30.6
2020-Aug-11 16:15 027 4 gusting 11 30.6
2020-Aug-11 16:10 033 5 gusting 11 31.1
2020-Aug-11 16:05 035 4 gusting 9 31.1
2020-Aug-11 16:00 049 4 gusting 9 31.1
2020-Aug-11 15:55 046 5 gusting 11 31.1
2020-Aug-11 15:50 049 5 gusting 11 31.1
2020-Aug-11 15:45 059 4 gusting 11 31.1
2020-Aug-11 15:40 051 5 gusting 12 31.1
2020-Aug-11 15:35 040 6 gusting 12 31.1
2020-Aug-11 15:30 023 6 gusting 13 31.7
2020-Aug-11 15:25 012 6 gusting 13 31.7
2020-Aug-11 15:20 009 6 gusting 13 31.7
2020-Aug-11 15:15 028 6 gusting 13 31.7
2020-Aug-11 15:10 042 7 gusting 17 31.7
2020-Aug-11 15:05 045 7 gusting 17 31.7
2020-Aug-11 15:00 034 6 gusting 17 31.7
2020-Aug-11 14:55 004 6 gusting 15 31.7
2020-Aug-11 14:50 004 6 gusting 15 32.2
2020-Aug-11 14:45 026 6 gusting 14 32.2
2020-Aug-11 14:40 037 6 gusting 13 32.2
2020-Aug-11 14:35 026 6 gusting 17 32.2
2020-Aug-11 14:30 022 7 gusting 17 32.2
2020-Aug-11 14:25 017 6 gusting 14 32.2
2020-Aug-11 14:20 349 6 gusting 12 32.8
2020-Aug-11 14:15 008 6 gusting 13 32.8
2020-Aug-11 14:10 040 6 gusting 14 32.2
2020-Aug-11 14:05 041 6 gusting 14 32.8
2020-Aug-11 14:00 014 5 gusting 13 32.8
2020-Aug-11 13:55 356 5 gusting 13 32.8
2020-Aug-11 13:50 352 5 gusting 13 32.8
2020-Aug-11 13:45 357 6 gusting 15 32.8
2020-Aug-11 13:40 010 6 gusting 15 32.8
2020-Aug-11 13:35 023 6 gusting 15 32.8
2020-Aug-11 13:30 007 6 gusting 13 32.2
2020-Aug-11 13:25 013 6 gusting 18 32.8
2020-Aug-11 13:20 049 7 gusting 18 32.8
2020-Aug-11 13:15 025 7 gusting 18 32.8
2020-Aug-11 13:05 002 7 gusting 18 32.8
2020-Aug-11 12:55 003 6 gusting 18 32.8
2020-Aug-11 12:50 024 6 gusting 18 32.8
2020-Aug-11 12:45 007 7 gusting 18 32.8
2020-Aug-11 12:40 008 6 gusting 15 32.8
2020-Aug-11 12:35 010 6 gusting 15 33.3
2020-Aug-11 12:30 353 6 gusting 16 32.8
2020-Aug-11 12:25 001 6 gusting 16 32.8
2020-Aug-11 12:20 009 6 gusting 15 32.8
2020-Aug-11 12:15 356 6 gusting 15 32.8
2020-Aug-11 12:05 341 6 gusting 17 32.8
2020-Aug-11 12:00 006 6 gusting 13 33.3
2020-Aug-11 11:55 007 6 gusting 13 32.8
2020-Aug-11 11:50 357 6 gusting 16 32.8
2020-Aug-11 11:45 351 6 gusting 16 32.8
2020-Aug-11 11:40 338 5 gusting 12 33.3
2020-Aug-11 11:35 011 5 gusting 12 32.8
2020-Aug-11 11:30 340 6 gusting 13 32.8
2020-Aug-11 11:25 330 6 gusting 13 32.8
2020-Aug-11 11:20 013 6 gusting 14 32.8
2020-Aug-11 11:15 014 7 gusting 14 32.8
2020-Aug-11 11:10 332 6 gusting 13 32.8
2020-Aug-11 11:05 329 6 gusting 13 32.8
2020-Aug-11 11:00 006 6 gusting 14 32.8
2020-Aug-11 10:55 012 6 gusting 17 32.8
2020-Aug-11 10:50 354 6 gusting 17 32.8
2020-Aug-11 10:45 356 6 gusting 16 32.8
2020-Aug-11 10:40 008 6 gusting 16 32.8
2020-Aug-11 10:35 006 6 gusting 13 32.8
2020-Aug-11 10:30 011 6 gusting 13 32.8
2020-Aug-11 10:25 003 6 gusting 14 32.2
2020-Aug-11 10:20 005 8 gusting 17 32.2
2020-Aug-11 10:15 011 6 gusting 17 32.2
2020-Aug-11 10:10 359 6 gusting 14 32.2
2020-Aug-11 10:05 011 6 gusting 13 32.2
2020-Aug-11 10:00 006 6 gusting 15 31.7
2020-Aug-11 09:55 342 7 gusting 15 31.7
2020-Aug-11 09:50 346 7 gusting 14 31.7
2020-Aug-11 09:45 329 7 gusting 14 31.7
2020-Aug-11 09:40 330 7 gusting 17 31.7
2020-Aug-11 09:35 008 6 gusting 17 31.7
2020-Aug-11 09:30 013 6 gusting 14 31.7
2020-Aug-11 09:25 349 6 gusting 14 31.7
2020-Aug-11 09:20 338 6 gusting 15 31.7
2020-Aug-11 09:15 351 6 gusting 15 31.7
2020-Aug-11 09:10 011 6 gusting 13 31.7
2020-Aug-11 09:05 359 6 gusting 15 31.7
2020-Aug-11 09:00 347 6 gusting 15 31.1
2020-Aug-11 08:55 013 6 gusting 13 31.1
2020-Aug-11 08:50 027 6 gusting 14 30.6
2020-Aug-11 08:45 010 6 gusting 14 31.1
2020-Aug-11 08:40 345 6 gusting 12 30.6
2020-Aug-11 08:35 345 6 gusting 12 30.6
2020-Aug-11 08:30 344 6 gusting 12 30.6
2020-Aug-11 08:25 012 5 gusting 13 30.6
2020-Aug-11 08:20 011 5 gusting 13 30.6
2020-Aug-11 08:15 342 5 gusting 12 30.6
2020-Aug-11 08:10 339 6 gusting 12 30.6
2020-Aug-11 08:05 348 6 gusting 13 30.0
2020-Aug-11 08:00 351 6 gusting 13 30.0
2020-Aug-11 07:55 351 6 gusting 12 30.0
2020-Aug-11 07:50 352 6 gusting 12 30.0
2020-Aug-11 07:45 344 5 gusting 12 30.0
2020-Aug-11 07:40 331 5 gusting 11 29.4
2020-Aug-11 07:35 337 5 gusting 11 29.4
2020-Aug-11 07:30 021 4 gusting 10 29.4
2020-Aug-11 07:25 004 4 gusting 11 29.4
2020-Aug-11 07:20 324 5 gusting 11 29.4
2020-Aug-11 07:15 341 4 gusting 11 29.4
2020-Aug-11 07:10 023 3 gusting 9 28.9
2020-Aug-11 07:05 055 2 gusting 9 28.9
2020-Aug-11 07:00 136 0 gusting 4 28.3
2020-Aug-11 06:55 216 0 gusting 4 28.3
2020-Aug-11 06:50 209 0 gusting 4 27.8
2020-Aug-11 06:45 321 1 gusting 6 27.2
2020-Aug-11 06:40 283 2 gusting 6 27.2
2020-Aug-11 06:35 216 2 gusting 6 26.7
2020-Aug-11 06:30 215 1 gusting 4 26.7
2020-Aug-11 06:25 241 0 gusting 4 26.7
2020-Aug-11 06:20 279 0 gusting 4 26.1
2020-Aug-11 06:15 307 0 gusting 4 26.1
2020-Aug-11 06:10 297 0 gusting 4 25.6
2020-Aug-11 06:05 249 0 gusting 3 25.6
2020-Aug-11 06:00 220 0 gusting 3 25.0
2020-Aug-11 05:55 237 1 gusting 4 24.4
2020-Aug-11 05:50 248 1 gusting 4 23.9
2020-Aug-11 05:45 247 0 gusting 4 23.9
2020-Aug-11 05:40 248 0 gusting 3 23.3
2020-Aug-11 05:35 254 0 gusting 3 22.8
2020-Aug-11 05:30 241 0 gusting 3 22.8
2020-Aug-11 05:25 246 0 gusting 3 22.2
2020-Aug-11 05:20 256 0 gusting 3 22.2
2020-Aug-11 05:15 239 0 gusting 3 21.7
2020-Aug-11 05:10 254 0 gusting 3 21.7
2020-Aug-11 05:05 274 0 gusting 3 21.1
2020-Aug-11 05:00 288 0 gusting 3 21.1
2020-Aug-11 04:55 270 0 gusting 2 20.6
2020-Aug-11 04:50 232 20.6
2020-Aug-11 04:45 264 0 gusting 3 20.6
2020-Aug-11 04:40 289 0 gusting 3 20.6
2020-Aug-11 04:35 298 20.0
2020-Aug-11 04:30 294 20.0
2020-Aug-11 04:25 235 20.0
2020-Aug-11 04:20 261 19.4
2020-Aug-11 04:15 293 19.4
2020-Aug-11 04:10 093 18.9
2020-Aug-11 04:05 061 18.9
2020-Aug-11 04:00 246 18.9
2020-Aug-11 03:55 245 0 gusting 4 18.9
2020-Aug-11 03:50 253 0 gusting 4 18.9
2020-Aug-11 03:45 278 0 gusting 4 18.9
2020-Aug-11 03:40 314 18.3
2020-Aug-11 03:35 321 18.3
2020-Aug-11 03:30 324 0 gusting 2 18.3
2020-Aug-11 03:25 344 0 gusting 3 18.3
2020-Aug-11 03:20 087 0 gusting 3 18.3
2020-Aug-11 03:15 050 18.3
2020-Aug-11 03:10 058 18.3
2020-Aug-11 03:05 066 0 gusting 2 18.9
2020-Aug-11 03:00 090 0 gusting 2 18.9
2020-Aug-11 02:55 103 18.9
2020-Aug-11 02:50 128 18.9
2020-Aug-11 02:45 128 19.4
2020-Aug-11 02:40 147 19.4
2020-Aug-11 02:35 139 19.4
2020-Aug-11 02:30 065 19.4
2020-Aug-11 02:25 005 19.4
2020-Aug-11 02:20 290 19.4
2020-Aug-11 02:15 220 0 gusting 4 19.4
2020-Aug-11 02:10 208 1 gusting 4 19.4
2020-Aug-11 02:05 211 1 gusting 4 19.4
2020-Aug-11 02:00 227 1 gusting 4 19.4
2020-Aug-11 01:55 212 1 gusting 5 19.4
2020-Aug-11 01:50 209 2 gusting 5 19.4
2020-Aug-11 01:45 213 2 gusting 5 20.0
2020-Aug-11 01:40 222 2 gusting 5 20.0
2020-Aug-11 01:35 245 1 gusting 4 20.0
2020-Aug-11 01:30 240 1 gusting 4 20.6
2020-Aug-11 01:25 233 0 gusting 3 20.6
2020-Aug-11 01:20 261 0 gusting 3 20.6
2020-Aug-11 01:15 275 0 gusting 3 20.6
2020-Aug-11 01:10 248 1 gusting 4 20.6
2020-Aug-11 01:05 241 0 gusting 4 20.0
2020-Aug-11 01:00 255 20.0
2020-Aug-11 00:55 001 20.0
2020-Aug-11 00:50 20.0
2020-Aug-11 00:45 001 20.0
2020-Aug-11 00:40 041 20.0
2020-Aug-11 00:35 028 20.0
2020-Aug-11 00:30 345 20.6
2020-Aug-11 00:25 262 20.6
2020-Aug-11 00:20 100 20.6
2020-Aug-11 00:15 182 0 gusting 3 20.6
2020-Aug-11 00:10 209 0 gusting 3 20.6
2020-Aug-11 00:05 190 20.6
2020-Aug-11 00:00 088 20.6
2020-Aug-10 23:55 098 21.1
2020-Aug-10 23:50 262 21.1
2020-Aug-10 23:45 238 0 gusting 4 20.6
2020-Aug-10 23:40 223 0 gusting 4 20.6
2020-Aug-10 23:35 232 0 gusting 4 20.6
2020-Aug-10 23:30 225 0 gusting 4 21.1
2020-Aug-10 23:25 243 0 gusting 4 21.1
2020-Aug-10 23:20 246 0 gusting 4 21.1
2020-Aug-10 23:15 174 21.1
2020-Aug-10 23:10 201 0 gusting 5 21.1
2020-Aug-10 23:05 225 0 gusting 5 21.1
2020-Aug-10 23:00 258 0 gusting 4 21.1
2020-Aug-10 22:55 266 0 gusting 4 21.1
2020-Aug-10 22:50 263 0 gusting 2 21.7
2020-Aug-10 22:45 237 0 gusting 3 21.7
2020-Aug-10 22:40 203 0 gusting 3 21.7
2020-Aug-10 22:35 195 0 gusting 2 21.7
2020-Aug-10 22:30 168 21.7
2020-Aug-10 22:25 179 22.2
2020-Aug-10 22:20 259 22.2
2020-Aug-10 22:15 274 22.2
2020-Aug-10 22:10 253 22.2
2020-Aug-10 22:05 215 22.2
2020-Aug-10 22:00 227 0 gusting 2 22.2
2020-Aug-10 21:55 253 0 gusting 2 22.2
2020-Aug-10 21:50 246 0 gusting 2 22.2
2020-Aug-10 21:45 223 0 gusting 4 22.2
2020-Aug-10 21:40 208 1 gusting 4 22.2
2020-Aug-10 21:35 198 0 gusting 3 22.2
2020-Aug-10 21:30 215 0 gusting 3 22.8
2020-Aug-10 21:25 234 0 gusting 3 22.8
2020-Aug-10 21:20 233 0 gusting 3 22.8
2020-Aug-10 21:15 230 22.8
2020-Aug-10 21:10 252 22.8
2020-Aug-10 21:05 243 0 gusting 4 22.8
2020-Aug-10 21:00 230 1 gusting 4 22.8
2020-Aug-10 20:55 215 0 gusting 4 22.8
2020-Aug-10 20:50 207 0 gusting 3 22.8
2020-Aug-10 20:45 201 0 gusting 3 22.8
2020-Aug-10 20:40 163 0 gusting 3 23.3
2020-Aug-10 20:35 186 0 gusting 3 23.9
2020-Aug-10 20:30 217 1 gusting 4 23.9
2020-Aug-10 20:25 213 1 gusting 4 23.9
2020-Aug-10 20:20 199 1 gusting 5 23.9
2020-Aug-10 20:15 198 1 gusting 5 23.9
2020-Aug-10 20:10 201 0 gusting 4 23.9
2020-Aug-10 20:05 159 0 gusting 3 23.9
2020-Aug-10 20:00 118 0 gusting 2 24.4
2020-Aug-10 19:55 311 24.4
2020-Aug-10 19:50 290 24.4
2020-Aug-10 19:45 276 24.4
2020-Aug-10 19:40 281 25.0
2020-Aug-10 19:35 272 0 gusting 2 25.0
2020-Aug-10 19:30 262 0 gusting 4 25.0
2020-Aug-10 19:25 222 1 gusting 4 25.0
2020-Aug-10 19:20 217 1 gusting 4 25.0
2020-Aug-10 19:15 212 2 gusting 5 25.0
2020-Aug-10 19:10 198 3 gusting 5 25.0
2020-Aug-10 19:05 187 2 gusting 5 25.0
2020-Aug-10 19:00 189 2 gusting 5 25.0
2020-Aug-10 18:55 211 2 gusting 5 25.6
2020-Aug-10 18:50 220 1 gusting 4 25.6
2020-Aug-10 18:45 237 1 gusting 5 25.6
2020-Aug-10 18:40 264 0 gusting 5 26.1
2020-Aug-10 18:35 291 1 gusting 6 26.1
2020-Aug-10 18:30 307 2 gusting 6 26.7
2020-Aug-10 18:25 318 3 gusting 10 26.7
2020-Aug-10 18:20 325 4 gusting 10 26.7
2020-Aug-10 18:15 320 4 gusting 9 26.7
2020-Aug-10 18:10 319 4 gusting 9 26.7
2020-Aug-10 18:05 334 4 gusting 9 26.7
2020-Aug-10 17:55 321 5 gusting 10 26.7
2020-Aug-10 17:50 331 5 gusting 11 26.7
2020-Aug-10 17:45 327 5 gusting 11 26.7
2020-Aug-10 17:40 323 4 gusting 9 27.2
2020-Aug-10 17:35 318 3 gusting 8 27.2
2020-Aug-10 17:30 327 3 gusting 8 27.2
2020-Aug-10 17:25 334 2 gusting 7 27.2
2020-Aug-10 17:20 318 2 gusting 7 27.8
2020-Aug-10 17:15 338 2 gusting 6 27.8
2020-Aug-10 17:10 349 3 gusting 6 27.8
2020-Aug-10 17:05 343 3 gusting 6 27.8
2020-Aug-10 17:00 337 3 gusting 7 28.3
2020-Aug-10 16:55 349 3 gusting 8 28.3
2020-Aug-10 16:50 357 3 gusting 8 28.3
2020-Aug-10 16:45 348 3 gusting 10 28.3
2020-Aug-10 16:40 350 5 gusting 12 28.9
2020-Aug-10 16:35 347 6 gusting 12 28.9
2020-Aug-10 16:30 349 5 gusting 12 28.9
2020-Aug-10 16:25 355 6 gusting 16 28.9
2020-Aug-10 16:20 358 6 gusting 16 28.9
2020-Aug-10 16:15 016 5 gusting 13 29.4
2020-Aug-10 16:10 359 6 gusting 13 29.4
2020-Aug-10 16:05 325 5 gusting 13 29.4
2020-Aug-10 16:00 343 6 gusting 16 29.4
2020-Aug-10 15:55 012 6 gusting 16 29.4
2020-Aug-10 15:50 014 6 gusting 16 30.0
2020-Aug-10 15:45 005 6 gusting 13 30.0
2020-Aug-10 15:40 359 7 gusting 18 30.0
2020-Aug-10 15:35 002 8 gusting 18 30.0
2020-Aug-10 15:30 001 8 gusting 17 30.0
2020-Aug-10 15:25 352 6 gusting 15 30.0
2020-Aug-10 15:20 357 6 gusting 13 30.0
2020-Aug-10 15:15 003 5 gusting 13 30.0
2020-Aug-10 15:10 010 5 gusting 13 30.0
2020-Aug-10 15:05 032 6 gusting 14 30.0
2020-Aug-10 15:00 020 6 gusting 15 30.0
2020-Aug-10 14:55 012 7 gusting 16 30.0
2020-Aug-10 14:50 018 6 gusting 20 30.0
2020-Aug-10 14:45 002 6 gusting 20 30.6
2020-Aug-10 14:40 354 7 gusting 15 30.0
2020-Aug-10 14:35 347 8 gusting 14 30.6
2020-Aug-10 14:30 359 8 gusting 15 30.6
2020-Aug-10 14:25 013 7 gusting 15 30.6
2020-Aug-10 14:20 013 7 gusting 18 30.6
2020-Aug-10 14:15 007 9 gusting 18 30.6
2020-Aug-10 14:10 355 9 gusting 17 30.6
2020-Aug-10 14:05 356 9 gusting 20 30.6
2020-Aug-10 14:00 008 9 gusting 20 30.6
2020-Aug-10 13:55 004 8 gusting 18 30.6
2020-Aug-10 13:50 357 9 gusting 18 30.6
2020-Aug-10 13:45 358 8 gusting 19 30.6
2020-Aug-10 13:40 355 8 gusting 19 30.6
2020-Aug-10 13:35 354 9 gusting 18 30.6
2020-Aug-10 13:30 012 8 gusting 18 30.6
2020-Aug-10 13:25 032 6 gusting 14 30.6
2020-Aug-10 13:20 029 8 gusting 19 30.6
2020-Aug-10 13:15 023 10 gusting 21 30.6
2020-Aug-10 13:10 007 11 gusting 21 30.6
2020-Aug-10 13:05 009 10 gusting 20 30.6
2020-Aug-10 13:00 018 11 gusting 23 30.6
2020-Aug-10 12:55 015 12 gusting 23 30.6
2020-Aug-10 12:50 014 12 gusting 23 30.6
2020-Aug-10 12:45 356 11 gusting 22 30.6
2020-Aug-10 12:40 344 11 gusting 22 30.6
2020-Aug-10 12:35 353 11 gusting 22 30.6
2020-Aug-10 12:30 013 13 gusting 28 30.6
2020-Aug-10 12:25 004 12 gusting 28 30.6
2020-Aug-10 12:20 354 10 gusting 20 30.6
2020-Aug-10 12:15 008 11 gusting 26 30.6
2020-Aug-10 12:10 002 14 gusting 34 30.6
2020-Aug-10 12:05 005 15 gusting 34 30.6
2020-Aug-10 12:00 019 13 gusting 26 30.6
2020-Aug-10 11:55 011 11 gusting 26 30.6
2020-Aug-10 11:50 354 12 gusting 26 30.6
2020-Aug-10 11:45 016 14 gusting 27 30.6
2020-Aug-10 11:40 014 13 gusting 27 30.6
2020-Aug-10 11:35 017 12 gusting 25 30.6
2020-Aug-10 11:30 016 13 gusting 26 30.6
2020-Aug-10 11:25 001 13 gusting 26 30.6
2020-Aug-10 11:20 016 13 gusting 30 30.6
2020-Aug-10 11:15 018 11 gusting 30 30.6
2020-Aug-10 11:10 006 10 gusting 21 30.6
2020-Aug-10 11:05 004 10 gusting 23 30.6
2020-Aug-10 11:00 001 11 gusting 23 30.6
2020-Aug-10 10:55 019 13 gusting 23 30.6
2020-Aug-10 10:50 014 13 gusting 23 30.6
2020-Aug-10 10:45 007 11 gusting 26 30.6
2020-Aug-10 10:40 016 10 gusting 26 30.6
2020-Aug-10 10:35 008 10 gusting 23 30.6
2020-Aug-10 10:30 354 11 gusting 23 30.6
2020-Aug-10 10:25 003 11 gusting 25 30.6
2020-Aug-10 10:20 018 11 gusting 25 30.0
2020-Aug-10 10:15 012 10 gusting 25 30.6
2020-Aug-10 10:10 015 12 gusting 24 30.0
2020-Aug-10 10:05 012 13 gusting 24 30.0
2020-Aug-10 10:00 011 10 gusting 19 30.6
2020-Aug-10 09:55 013 8 gusting 19 30.6
2020-Aug-10 09:50 013 9 gusting 19 30.6
2020-Aug-10 09:45 018 10 gusting 24 30.6
2020-Aug-10 09:40 003 11 gusting 24 30.6
2020-Aug-10 09:35 004 10 gusting 21 30.6
2020-Aug-10 09:30 019 8 gusting 19 30.6
2020-Aug-10 09:25 012 8 gusting 19 30.0
2020-Aug-10 09:20 023 9 gusting 19 30.0
2020-Aug-10 09:15 011 11 gusting 22 30.0
2020-Aug-10 09:10 016 11 gusting 22 30.0
2020-Aug-10 09:05 039 10 gusting 22 30.0
2020-Aug-10 09:00 028 9 gusting 22 30.0
2020-Aug-10 08:55 353 11 gusting 22 30.0
2020-Aug-10 08:50 325 12 gusting 24 30.0
2020-Aug-10 08:45 335 11 gusting 24 30.0
2020-Aug-10 08:40 001 11 gusting 21 30.0
2020-Aug-10 08:35 345 12 gusting 22 29.4
2020-Aug-10 08:30 334 11 gusting 22 29.4
2020-Aug-10 08:25 327 9 gusting 19 29.4
2020-Aug-10 08:20 327 8 gusting 19 29.4
2020-Aug-10 08:15 319 8 gusting 20 28.9
2020-Aug-10 08:10 312 9 gusting 21 28.3
2020-Aug-10 08:05 329 10 gusting 21 28.3
2020-Aug-10 08:00 346 11 gusting 22 28.3
2020-Aug-10 07:55 337 10 gusting 22 28.3
2020-Aug-10 07:50 336 8 gusting 15 28.3
2020-Aug-10 07:45 343 8 gusting 16 27.8
2020-Aug-10 07:40 331 9 gusting 22 28.3
2020-Aug-10 07:35 322 9 gusting 22 28.3
2020-Aug-10 07:30 332 10 gusting 26 28.3
2020-Aug-10 07:25 335 12 gusting 26 28.3
2020-Aug-10 07:20 332 10 gusting 20 28.3
2020-Aug-10 07:15 345 10 gusting 22 28.3
2020-Aug-10 07:10 345 10 gusting 22 28.3
2020-Aug-10 07:05 319 12 gusting 25 28.3
2020-Aug-10 07:00 327 13 gusting 25 27.8
2020-Aug-10 06:55 356 13 gusting 25 27.8
2020-Aug-10 06:50 355 13 gusting 28 27.8
2020-Aug-10 06:45 347 12 gusting 28 27.8
2020-Aug-10 06:40 339 13 gusting 25 27.8
2020-Aug-10 06:35 328 13 gusting 29 27.8
2020-Aug-10 06:30 332 13 gusting 29 27.8
2020-Aug-10 06:25 342 11 gusting 29 27.8
2020-Aug-10 06:20 340 9 gusting 21 27.8
2020-Aug-10 06:15 355 8 gusting 19 27.8
2020-Aug-10 06:10 359 6 gusting 19 27.2
2020-Aug-10 06:05 339 4 gusting 12 27.2
2020-Aug-10 06:00 352 6 gusting 15 27.2